Temp
-2 -1 0 -0 -0 -0 -0 -0 -0 -0 0 -0 0 0 0 0 -0 -1 -1 -1 -1 -1 -1 0 2 2 2 2 2 3 3 2 2 3 4 4 5 5 5 6 5 5 5 4 4 4 5 5 5 6 5 0 1 -0
-2 -1 -1 -0 -0 -0 -0 -0 -0 -0 -0 0 0 -0 -0 -0 -0 -1 -1 -1 -1 -1 -0 1 1 2 2 2 2 1 3 2 3 4 3 4 4 4 5 5 5 5 6 6 6 6 3 3 3 5 4 2 -1 -0
-1 -1 -1 -1 -0 -0 -0 -0 0 -0 -0 -0 -0 -0 -0 -0 -1 -1 -1 -1 -1 -1 -1 -0 1 2 2 2 2 2 1 4 4 4 3 4 4 4 5 5 5 5 4 5 5 3 2 1 3 4 3 3 2 2
-0 -1 -0 -1 -1 -0 -0 -0 0 -0 -0 -1 -0 -0 -1 -1 -1 -2 -2 -1 -1 -1 -0 1 1 1 1 3 2 2 2 2 3 4 2 3 4 4 5 5 5 5 4 3 4 1 0 1 3 4 3 3 2 2
-1 -1 -1 -1 -0 -1 -0 -0 -0 -1 -1 -0 -0 -1 -1 -1 -1 -1 -1 -1 -1 -1 0 0 1 1 2 2 3 2 2 2 2 1 1 3 2 3 2 3 4 4 4 4 5 4 5 4 4 4 3 3 3 2
-1 -1 -0 -0 -0 -0 -0 -0 -1 -1 -1 -1 -1 -1 -1 -1 -1 -1 -1 -0 -1 -1 -0 1 1 1 1 2 2 2 2 1 0 0 1 1 2 3 4 4 5 4 4 5 4 3 3 3 2 2 3 2 2 2
-1 -1 -0 -0 -0 -0 -0 -1 -1 -1 -1 -1 -1 -1 -1 -1 -1 -1 -1 -0 -0 -1 -0 0 1 0 1 2 1 1 1 1 1 2 2 2 2 2 2 4 4 3 3 3 3 3 -0 0 0 1 2 1 1 0
-1 -0 -0 -1 -1 -1 -1 -1 -1 -1 -2 -1 -1 -1 -1 -1 -1 -1 -1 -1 -1 -0 -0 0 1 0 -0 0 0 1 2 2 2 2 2 2 1 1 3 4 2 2 2 2 1 3 3 2 1 0 1 0 -0 -1
-1 -1 -1 -1 -1 -1 -1 -1 -2 -1 -2 -2 -2 -2 -1 -1 -2 -1 -1 -1 -0 -0 -0 -0 2 2 0 0 2 2 3 2 1 2 2 1 1 2 3 4 2 1 2 1 1 2 1 1 1 0 -0 -1 -1 -1
-1 -1 -1 -1 -1 -1 -2 -2 -2 -2 -2 -2 -2 -2 -1 -1 -1 -1 -1 -1 -1 -0 -0 0 -0 1 1 -0 0 1 1 1 2 1 -0 1 3 3 4 4 4 4 3 2 1 -2 -1 -1 -0 -0 -0 -0 -0 -1
-1 -1 -1 -1 -2 -2 -2 -2 -2 -2 -2 -2 -3 -2 -2 -1 -1 -1 -1 -1 -1 0 0 -0 -0 1 1 1 0 -1 -0 -0 2 1 2 1 2 1 1 2 2 2 2 2 3 3 2 2 1 -0 -1 -1 -1 -1
-2 -2 -2 -2 -2 -2 -2 -2 -2 -2 -2 -2 -2 -2 -2 -1 -1 -0 -1 -0 1 1 -1 0 1 1 1 2 1 -0 0 -0 1 -2 1 1 1 -0 -0 -0 1 1 1 1 1 2 2 1 1 0 -1 -1 -1 -2
-2 -2 -2 -2 -2 -2 -2 -2 -2 -2 -2 -2 -2 -2 -2 -2 -2 -1 -1 -0 1 -1 -1 -0 -0 1 1 2 -2 -1 -0 0 -2 -1 0 -0 -1 -1 -1 -1 0 0 0 0 1 1 1 1 0 -0 -0 -1 -1 -2
-2 -2 -2 -2 -2 -2 -2 -2 -2 -2 -2 -1 -2 -3 -3 -3 -2 -2 -1 -1 -2 -2 0 1 -1 -0 -1 -1 -4 -0 -1 -1 -1 -0 0 -0 -2 -2 -2 -1 0 0 0 0 0 0 0 0 -0 -1 -1 -1 -2 -2
-2 -2 -2 -2 -2 -2 -2 -2 -2 -1 -1 -1 -2 -3 -3 -3 -3 -2 -2 -2 -1 -0 1 0 -0 -0 -2 -2 -2 -1 -0 -1 -1 -0 -1 -3 -3 -2 -1 -1 0 0 -0 -0 -0 -0 -1 -1 -1 -1 -2 -2 -3 -3
-2 -2 -3 -3 -2 -2 -2 -1 -1 -1 -1 -2 -3 -3 -3 -3 -2 -2 -2 -1 -0 0 1 2 -1 -1 -2 -1 -0 -1 0 -1 -1 -2 -4 -3 -3 -2 -1 -0 -0 -0 -0 -0 -1 -1 -1 -1 -1 -2 -2 -3 -3 -3
-2 -3 -2 -2 -1 -1 -1 -0 -1 -2 -2 -3 -3 -4 -3 -3 -3 -2 -2 -1 1 1 -1 -1 -1 -1 -1 -1 -0 -0 -1 -2 -3 -4 -4 -3 -3 -2 -1 -0 0 -0 -0 -0 -1 -1 -1 -1 -2 -2 -2 -2 -3 -3
-2 -2 -1 -1 -0 -0 -0 -1 -1 -2 -4 -3 -3 -3 -3 -3 -3 -2 -2 -0 1 1 -0 -1 -1 -1 -2 -1 -1 -2 -4 -4 -4 -5 -5 -4 -3 -2 -1 -0 -0 -0 -0 -1 -1 -1 -1 -2 -2 -2 -2 -3 -3 -3
-1 -1 -1 -0 1 1 -0 -1 -1 -4 -4 -3 -3 -3 -2 -3 -3 -2 -1 -1 0 -0 -0 -2 -4 -4 -4 -5 -5 -5 -5 -4 -4 -5 -5 -5 -4 -3 -2 -1 -0 -1 -1 -1 -1 -2 -2 -2 -3 -3 -3 -3 -3 -4
-0 -0 0 0 1 0 -1 -2 -2 -2 -3 -3 -3 -3 -3 -3 -3 -2 -1 -1 -1 -2 -5 -5 -6 -6 -6 -6 -6 -6 -5 -4 -4 -4 -5 -5 -5 -5 -3 -3 -3 -2 -2 -2 -2 -3 -3 -3 -3 -4 -4 -4 -4 -5
-0 -0 0 0 0 -1 -2 -2 -2 -2 -2 -3 -3 -3 -3 -3 -3 -3 -3 -3 -4 -6 -6 -7 -7 -7 -6 -6 -6 -6 -5 -5 -4 -5 -5 -5 -5 -5 -5 -4 -4 -4 -4 -4 -4 -4 -4 -5 -5 -5 -5 -5 -5 -5
-0 0 0 -0 -1 -2 -2 -3 -2 -2 -2 -3 -2 -3 -3 -4 -4 -5 -5 -6 -7 -8 -7 -7 -7 -7 -7 -6 -7 -6 -6 -6 -5 -5 -5 -5 -5 -5 -5 -5 -5 -5 -5 -5 -5 -6 -6 -6 -6 -6 -6 -6 -6 -7
-0 -0 -1 -1 -1 -2 -3 -3 -2 -2 -5 -4 -3 -4 -5 -5 -4 -5 -7 -8 -9 -8 -8 -7 -7 -7 -7 -8 -8 -7 -7 -7 -6 -6 -6 -6 -6 -6 -5 -6 -6 -6 -6 -6 -6 -6 -7 -7 -7 -7 -7 -8 -8 -8
-0 -1 -2 -2 -3 -6 -3 -3 -3 -3 -3 -5 -6 -6 -6 -5 -5 -7 -8 -10 -11 -9 -8 -8 -8 -8 -8 -8 -8 -8 -8 -8 -8 -8 -8 -7 -7 -6 -6 -6 -6 -6 -6 -6 -7 -7 -7 -7 -7 -7 -7 -8 -8 -8
-1 -4 -3 -9 -5 -6 -11 -11 -10 -7 -9 -10 -9 -8 -8 -6 -9 -10 -9 -11 -11 -10 -9 -9 -9 -9 -9 -10 -10 -10 -10 -9 -9 -9 -9 -9 -9 -8 -8 -8 -8 -8 -7 -7 -7 -7 -7 -8 -8 -8 -8 -8 -8 -8
-9 -5 -7 -7 -7 -8 -8 -9 -11 -10 -11 -11 -8 -8 -7 -10 -10 -10 -11 -12 -12 -11 -10 -10 -10 -10 -10 -10 -10 -9 -9 -10 -10 -10 -10 -10 -9 -9 -9 -9 -9 -9 -9 -9 -8 -8 -8 -9 -9 -9 -9 -9 -9 -9
-10 -9 -5 -5 -5 -5 -8 -7 -7 -10 -11 -10 -9 -12 -11 -11 -12 -13 -13 -13 -12 -12 -11 -11 -11 -11 -11 -11 -10 -10 -10 -9 -10 -10 -11 -11 -10 -10 -10 -10 -10 -10 -10 -10 -10 -10 -9 -9 -9 -9 -10 -10 -9 -9
-6 -6 -10 -6 -5 -6 -13 -14 -12 -11 -11 -7 -8 -10 -10 -12 -12 -14 -14 -14 -13 -13 -13 -12 -12 -12 -12 -11 -11 -10 -10 -9 -10 -11 -11 -11 -11 -11 -11 -11 -11 -11 -10 -10 -10 -10 -10 -10 -10 -10 -10 -10 -10 -10
-6 -6 -6 -8 -6 -7 -8 -11 -7 -8 -8 -8 -11 -13 -15 -15 -16 -15 -15 -14 -14 -14 -13 -13 -13 -13 -13 -13 -12 -12 -11 -12 -12 -12 -12 -12 -12 -12 -12 -11 -11 -11 -11 -11 -11 -11 -10 -11 -11 -11 -11 -11 -10 -10
-6 -6 -6 -10 -12 -10 -7 -7 -6 -7 -8 -9 -11 -14 -15 -17 -16 -16 -15 -15 -15 -14 -14 -14 -14 -14 -14 -14 -14 -13 -13 -13 -13 -13 -13 -13 -13 -13 -13 -12 -12 -12 -12 -11 -11 -11 -11 -11 -11 -12 -11 -11 -11 -11
-7 -7 -7 -8 -9 -6 -6 -7 -7 -8 -9 -11 -12 -13 -16 -17 -18 -17 -17 -16 -16 -16 -15 -15 -15 -15 -15 -15 -15 -15 -15 -15 -15 -15 -14 -14 -14 -14 -14 -14 -13 -13 -13 -13 -13 -12 -12 -12 -12 -12 -12 -12 -12 -12
-8 -8 -8 -9 -8 -8 -8 -8 -8 -9 -11 -12 -14 -15 -17 -17 -18 -18 -18 -17 -17 -17 -16 -16 -16 -16 -16 -16 -16 -16 -16 -16 -16 -16 -16 -15 -15 -15 -15 -15 -15 -15 -14 -14 -14 -14 -13 -13 -13 -14 -14 -14 -14 -15
-10 -9 -9 -8 -9 -9 -8 -8 -10 -13 -13 -15 -16 -16 -17 -17 -19 -18 -19 -18 -17 -17 -17 -17 -17 -17 -17 -17 -17 -17 -17 -17 -17 -16 -16 -16 -16 -16 -16 -16 -16 -16 -16 -15 -15 -15 -15 -15 -15 -15 -15 -16 -16 -16
Height
1314 1317 1320 1330 1338 1347 1359 1371 1382 1392 1401 1410 1418 1425 1431 1437 1443 1447 1452 1456 1459 1461 1459 1458 1459 1462 1462 1462 1461 1460 1462 1462 1464 1464 1462 1460 1457 1459 1460 1458 1460 1460 1464 1464 1466 1466 1463 1451 1456 1455 1453 1453 1455 1458
1311 1316 1323 1332 1341 1350 1362 1373 1382 1391 1399 1407 1415 1422 1428 1434 1439 1444 1448 1452 1455 1458 1455 1452 1453 1454 1456 1457 1458 1457 1454 1453 1454 1456 1458 1456 1457 1457 1453 1453 1455 1457 1453 1454 1453 1450 1451 1450 1451 1450 1451 1451 1456 1458
1311 1317 1323 1334 1344 1354 1364 1373 1381 1389 1398 1406 1413 1419 1425 1430 1435 1439 1444 1448 1451 1452 1450 1448 1442 1446 1448 1449 1451 1452 1450 1450 1449 1449 1451 1452 1452 1452 1450 1447 1448 1450 1450 1449 1451 1448 1449 1450 1450 1451 1451 1452 1455 1460
1310 1321 1328 1338 1348 1357 1366 1374 1382 1390 1398 1405 1411 1416 1422 1427 1432 1436 1439 1443 1447 1447 1445 1439 1436 1435 1439 1441 1442 1442 1445 1446 1447 1448 1449 1450 1449 1447 1445 1444 1443 1444 1446 1447 1447 1449 1449 1448 1448 1449 1451 1454 1457 1462
1316 1326 1335 1343 1351 1360 1368 1375 1383 1391 1397 1404 1409 1414 1419 1424 1429 1433 1436 1439 1442 1447 1439 1436 1434 1433 1434 1435 1436 1438 1439 1442 1443 1445 1446 1444 1444 1445 1445 1444 1441 1440 1439 1441 1438 1435 1436 1437 1442 1446 1450 1453 1457 1460
1324 1333 1341 1348 1355 1363 1370 1378 1385 1391 1397 1403 1408 1412 1417 1422 1427 1429 1433 1433 1435 1440 1442 1434 1430 1428 1428 1431 1432 1434 1436 1439 1440 1442 1442 1442 1442 1442 1441 1438 1432 1431 1432 1432 1433 1434 1437 1437 1441 1445 1449 1453 1458 1462
1332 1339 1345 1352 1359 1365 1373 1379 1386 1391 1397 1403 1408 1412 1416 1419 1422 1425 1426 1425 1427 1434 1435 1433 1428 1426 1426 1428 1431 1434 1436 1438 1440 1441 1440 1441 1441 1441 1440 1434 1428 1428 1431 1431 1432 1435 1439 1440 1441 1447 1451 1455 1459 1463
1337 1343 1349 1356 1363 1369 1375 1381 1387 1392 1398 1403 1407 1411 1414 1418 1419 1419 1418 1421 1422 1426 1430 1428 1426 1426 1427 1428 1431 1434 1435 1438 1438 1438 1438 1438 1440 1440 1435 1426 1427 1428 1429 1431 1432 1433 1435 1438 1443 1448 1452 1455 1459 1463
1343 1349 1354 1361 1367 1372 1377 1383 1389 1395 1399 1403 1407 1410 1412 1413 1415 1413 1414 1416 1420 1426 1424 1424 1421 1422 1426 1429 1431 1433 1434 1437 1437 1437 1437 1438 1437 1434 1425 1423 1424 1425 1427 1429 1432 1434 1436 1438 1443 1447 1451 1455 1458 1462
1349 1353 1359 1364 1370 1375 1381 1386 1391 1395 1398 1402 1406 1407 1407 1407 1409 1411 1415 1417 1420 1419 1421 1420 1421 1422 1425 1427 1429 1431 1431 1434 1433 1437 1436 1435 1428 1425 1424 1424 1423 1424 1427 1428 1431 1436 1438 1440 1442 1446 1450 1455 1459 1462
1353 1358 1363 1368 1374 1379 1384 1388 1392 1395 1398 1402 1403 1404 1404 1405 1408 1411 1414 1415 1415 1417 1417 1418 1420 1420 1424 1425 1428 1432 1433 1435 1433 1436 1435 1433 1429 1428 1425 1423 1423 1426 1428 1429 1431 1433 1435 1437 1439 1444 1450 1455 1459 1462
1360 1364 1369 1374 1379 1384 1387 1391 1394 1397 1399 1401 1401 1403 1404 1406 1407 1409 1412 1413 1412 1412 1415 1416 1419 1421 1423 1424 1426 1432 1433 1435 1434 1438 1436 1432 1431 1429 1425 1424 1424 1427 1429 1431 1433 1433 1434 1437 1442 1446 1450 1454 1458 1462
1368 1372 1376 1380 1384 1388 1390 1393 1395 1397 1398 1400 1401 1403 1405 1407 1409 1408 1412 1412 1410 1412 1413 1416 1420 1420 1423 1424 1429 1431 1433 1435 1438 1438 1434 1434 1432 1428 1426 1426 1427 1429 1430 1432 1433 1434 1435 1438 1443 1447 1450 1455 1458 1461
1375 1379 1383 1386 1390 1392 1395 1396 1398 1400 1401 1402 1402 1406 1409 1411 1411 1411 1409 1410 1412 1411 1412 1414 1417 1419 1422 1426 1431 1432 1436 1436 1438 1438 1435 1435 1433 1428 1427 1428 1430 1430 1432 1433 1434 1435 1437 1440 1444 1448 1451 1455 1457 1460
1380 1384 1387 1390 1393 1395 1398 1399 1400 1401 1401 1402 1403 1410 1412 1412 1412 1411 1410 1410 1411 1412 1413 1415 1418 1420 1425 1429 1431 1433 1434 1438 1439 1438 1437 1436 1432 1429 1428 1430 1432 1433 1434 1436 1436 1437 1440 1443 1446 1448 1451 1454 1456 1458
1386 1388 1391 1393 1396 1398 1399 1401 1401 1401 1402 1406 1410 1412 1412 1412 1412 1411 1411 1411 1412 1413 1414 1415 1419 1424 1429 1429 1430 1435 1432 1438 1441 1440 1439 1435 1432 1430 1430 1432 1434 1436 1437 1438 1439 1440 1442 1443 1446 1448 1450 1452 1454 1457
1391 1392 1395 1398 1400 1401 1402 1403 1403 1404 1408 1411 1415 1415 1415 1414 1414 1413 1412 1413 1413 1414 1417 1418 1423 1428 1430 1430 1433 1435 1437 1441 1442 1441 1438 1436 1433 1432 1432 1433 1435 1437 1438 1440 1442 1443 1444 1445 1446 1447 1450 1452 1453 1455
1394 1396 1398 1401 1402 1402 1402 1403 1405 1410 1415 1417 1418 1419 1417 1417 1416 1415 1415 1415 1415 1416 1418 1423 1426 1429 1434 1434 1438 1441 1442 1442 1442 1440 1439 1437 1436 1435 1434 1435 1436 1438 1439 1441 1442 1443 1444 1445 1446 1447 1449 1450 1452 1453
1401 1402 1403 1403 1403 1403 1405 1408 1409 1414 1419 1419 1420 1420 1419 1419 1419 1418 1418 1417 1417 1418 1421 1426 1433 1439 1443 1444 1444 1443 1443 1442 1442 1441 1440 1438 1437 1437 1437 1437 1438 1438 1439 1440 1441 1442 1443 1444 1445 1445 1446 1447 1448 1449
1404 1404 1404 1404 1404 1405 1408 1411 1412 1415 1419 1421 1421 1421 1422 1422 1421 1420 1419 1419 1420 1422 1429 1437 1443 1445 1445 1445 1445 1444 1443 1442 1442 1442 1442 1441 1440 1438 1438 1438 1438 1438 1438 1439 1440 1440 1440 1441 1441 1442 1443 1443 1444 1444
1407 1406 1406 1406 1406 1408 1412 1414 1415 1418 1420 1422 1423 1423 1424 1424 1424 1424 1425 1426 1427 1436 1443 1446 1447 1447 1447 1446 1446 1445 1444 1443 1443 1443 1444 1443 1442 1441 1439 1438 1438 1437 1437 1438 1438 1439 1439 1438 1438 1439 1439 1439 1439 1439
1409 1408 1408 1408 1409 1412 1415 1417 1418 1419 1421 1422 1423 1424 1425 1427 1428 1429 1430 1432 1441 1446 1446 1447 1447 1448 1448 1447 1447 1446 1446 1445 1444 1444 1443 1443 1442 1442 1440 1439 1439 1439 1439 1438 1437 1437 1437 1437 1436 1435 1435 1435 1435 1436
1410 1409 1409 1409 1411 1414 1421 1419 1419 1421 1422 1423 1424 1425 1427 1428 1429 1431 1436 1442 1447 1448 1448 1448 1448 1449 1448 1448 1448 1448 1447 1445 1444 1443 1442 1441 1441 1441 1440 1439 1439 1439 1439 1439 1438 1437 1437 1436 1436 1435 1434 1434 1434 1433
1412 1411 1412 1412 1415 1418 1419 1420 1421 1422 1423 1425 1427 1430 1430 1429 1430 1433 1439 1444 1446 1447 1447 1447 1448 1448 1448 1448 1447 1446 1445 1444 1443 1442 1441 1440 1440 1439 1438 1438 1438 1437 1437 1437 1436 1436 1436 1435 1435 1434 1433 1432 1432 1432
1415 1419 1418 1419 1420 1420 1423 1424 1424 1424 1429 1429 1430 1431 1430 1431 1435 1439 1441 1444 1444 1445 1445 1446 1446 1446 1446 1446 1446 1445 1444 1443 1442 1441 1441 1440 1440 1439 1438 1437 1437 1437 1436 1435 1435 1434 1434 1433 1432 1431 1430 1430 1429 1428
1421 1422 1422 1422 1423 1424 1426 1428 1429 1429 1429 1430 1429 1429 1429 1431 1437 1441 1443 1444 1445 1445 1446 1446 1446 1445 1445 1444 1444 1443 1443 1442 1442 1441 1441 1440 1439 1438 1438 1438 1438 1437 1436 1435 1434 1433 1432 1431 1430 1429 1428 1426 1425 1425
1426 1425 1424 1424 1424 1424 1425 1425 1426 1426 1429 1431 1429 1431 1432 1438 1441 1443 1443 1444 1445 1445 1446 1446 1446 1446 1445 1445 1444 1443 1443 1442 1441 1442 1441 1441 1440 1439 1439 1438 1437 1436 1435 1433 1432 1431 1430 1428 1427 1426 1425 1424 1422 1421
1426 1426 1427 1426 1425 1425 1425 1427 1427 1428 1427 1427 1428 1431 1434 1436 1439 1441 1441 1443 1443 1444 1445 1445 1445 1445 1445 1445 1444 1443 1442 1440 1440 1441 1441 1441 1440 1440 1439 1438 1436 1435 1433 1431 1430 1429 1428 1427 1426 1424 1423 1422 1421 1421
1426 1426 1426 1425 1425 1424 1424 1425 1425 1426 1427 1427 1428 1432 1435 1436 1438 1439 1440 1441 1442 1443 1444 1444 1444 1444 1444 1444 1443 1442 1441 1441 1441 1440 1440 1440 1439 1439 1437 1435 1434 1432 1431 1429 1427 1426 1425 1423 1423 1422 1421 1420 1419 1419
1427 1427 1426 1426 1426 1425 1423 1424 1424 1425 1426 1426 1427 1430 1433 1436 1438 1439 1440 1440 1441 1441 1442 1442 1442 1443 1442 1442 1441 1441 1440 1439 1439 1439 1438 1437 1436 1436 1434 1433 1431 1429 1427 1426 1424 1422 1421 1420 1420 1420 1419 1419 1418 1417
1426 1425 1424 1423 1421 1420 1421 1422 1422 1424 1425 1426 1427 1429 1431 1434 1436 1437 1438 1439 1439 1440 1440 1440 1441 1441 1441 1440 1440 1440 1439 1439 1438 1437 1436 1435 1434 1433 1432 1431 1429 1427 1425 1423 1421 1420 1419 1418 1418 1418 1418 1418 1418 1419
1425 1423 1422 1421 1419 1419 1419 1420 1421 1422 1424 1425 1427 1429 1431 1433 1435 1437 1437 1437 1437 1438 1438 1438 1438 1439 1439 1439 1439 1439 1439 1438 1437 1436 1435 1434 1433 1432 1431 1429 1428 1426 1424 1423 1421 1420 1419 1418 1418 1418 1419 1419 1420 1421
1424 1422 1421 1419 1418 1418 1418 1419 1419 1422 1424 1425 1427 1429 1430 1432 1434 1436 1436 1436 1437 1436 1436 1436 1437 1437 1438 1438 1438 1438 1438 1437 1436 1435 1435 1434 1432 1431 1430 1429 1427 1426 1425 1424 1423 1423 1422 1422 1422 1422 1422 1423 1423 1424
Wind_Speed
21 17 32 34 37 40 41 39 39 38 35 35 33 31 27 28 30 28 26 23 20 10 21 13 13 21 19 9 3 2 3 3 5 6 4 3 3 6 4 4 6 9 6 3 2 1 7 8 6 5 1 5 13 19
26 26 28 33 36 39 39 39 37 35 33 33 31 27 25 26 27 28 27 23 24 19 12 9 17 29 29 22 11 8 4 5 9 3 3 2 3 3 6 4 4 5 6 4 8 5 1 8 0 5 6 12 15 21
32 34 34 38 38 37 35 33 32 32 32 31 27 24 24 26 24 27 24 18 16 16 19 26 33 25 24 24 24 11 8 5 6 5 5 1 3 3 5 5 5 4 4 3 2 3 2 5 4 7 6 15 21 23
36 35 34 33 34 34 32 30 30 30 29 26 24 23 25 24 23 24 29 24 19 5 4 11 14 15 23 23 24 21 17 13 9 7 2 2 3 6 3 1 4 2 9 6 4 2 2 9 11 12 12 17 21 22
36 34 32 31 31 31 30 29 29 28 26 23 22 22 23 23 21 23 22 23 22 14 3 4 8 16 17 18 19 25 23 16 9 4 2 3 2 3 1 1 3 7 6 5 4 10 6 7 22 18 20 23 24 26
34 31 30 29 28 28 28 28 28 26 25 22 19 18 22 19 21 19 10 27 28 24 7 2 6 3 11 13 14 17 21 13 3 3 2 2 3 1 2 3 4 10 10 10 3 6 7 8 23 23 24 25 24 21
30 29 27 26 25 27 28 28 25 26 24 20 16 17 19 20 18 22 8 7 11 24 5 3 3 5 10 10 10 8 12 5 6 4 6 3 4 3 1 3 3 8 10 9 6 14 9 22 16 24 23 23 22 21
28 27 27 26 26 25 27 23 23 22 18 17 16 16 15 15 19 20 31 13 19 19 6 2 1 3 6 5 3 7 7 8 4 3 2 2 5 1 3 6 4 6 8 10 17 9 5 20 25 25 24 25 25 24
24 23 26 26 24 24 27 24 21 19 18 15 13 14 13 12 8 9 15 20 22 6 5 3 3 2 6 3 4 4 5 2 4 2 2 3 2 3 5 8 13 15 12 15 13 6 14 24 29 27 27 27 26 25
22 23 27 27 27 25 24 21 22 21 17 16 12 7 6 8 8 15 9 14 13 6 5 1 3 2 6 4 2 2 2 1 2 1 1 2 3 7 7 7 9 16 13 19 18 14 20 26 30 29 29 27 24 22
21 26 27 29 26 23 22 20 20 17 13 12 5 2 9 18 5 4 4 6 4 2 4 4 3 3 4 2 2 2 2 0 1 1 1 1 2 4 15 8 8 17 13 17 12 6 13 22 30 29 28 24 21 19
26 27 26 24 22 21 20 15 16 14 6 6 6 10 3 3 3 3 1 1 1 2 3 4 4 5 3 3 3 1 2 1 1 1 0 2 2 15 12 3 11 12 12 14 6 5 10 16 23 24 24 23 19 16
25 24 24 24 22 18 13 21 12 7 14 13 4 3 3 3 4 2 4 1 2 2 5 6 3 3 4 3 5 2 2 1 1 1 1 1 9 18 6 6 12 10 9 9 7 7 10 15 19 19 20 18 17 15
23 22 22 21 18 14 10 9 8 10 2 2 2 3 2 3 2 1 1 1 0 2 9 10 5 3 3 3 1 3 1 1 1 1 1 3 14 15 2 8 10 9 8 7 6 8 12 14 16 15 14 15 16 16
24 22 19 17 14 13 11 11 10 2 1 3 4 3 2 1 1 1 1 1 3 8 6 8 6 3 2 3 1 2 2 1 0 1 2 12 15 7 1 7 8 8 8 6 5 10 13 13 14 15 14 14 13 13
19 18 16 13 16 12 16 8 2 3 4 4 6 2 4 2 3 4 5 9 5 5 6 4 3 3 2 2 2 2 2 1 1 2 9 13 10 5 2 6 7 6 6 5 7 9 10 11 11 12 13 14 13 13
14 16 17 18 14 10 6 1 3 6 5 4 4 7 4 2 2 4 6 5 6 3 2 2 4 2 1 2 2 1 2 2 3 6 9 11 8 7 6 6 7 7 7 7 6 7 8 9 10 11 11 11 12 12
20 17 19 14 9 10 11 5 4 5 6 6 3 3 6 5 4 8 9 8 7 4 3 3 3 3 3 2 2 2 3 3 7 7 7 8 6 6 6 6 6 6 6 7 8 7 7 7 8 9 10 11 12 13
13 10 8 5 5 3 4 5 5 4 4 3 5 6 5 6 12 10 11 11 13 10 7 5 5 2 2 3 3 5 5 5 6 10 10 6 4 4 4 4 5 6 5 6 7 7 7 7 8 9 10 11 12 13
9 5 4 3 5 4 4 4 4 5 3 3 3 5 3 5 9 12 12 14 13 6 8 4 2 2 3 4 5 6 7 5 5 5 8 10 10 4 2 1 2 3 5 7 9 9 9 9 9 10 11 12 12 13
9 4 3 1 5 6 4 3 4 4 5 4 5 4 5 9 7 8 9 9 11 5 4 5 8 10 9 10 9 8 10 10 9 5 5 6 8 9 10 10 6 3 2 5 7 7 8 9 10 10 11 11 12 13
10 6 4 4 4 4 5 5 4 4 3 4 3 3 4 3 3 4 4 9 5 5 4 5 7 7 7 9 9 9 8 7 5 4 3 4 6 4 5 5 6 6 6 5 3 2 1 2 3 4 5 7 9 10
8 6 4 5 3 4 2 3 2 2 3 1 2 3 3 2 3 3 5 5 5 6 7 9 9 6 5 5 5 5 5 6 5 5 4 4 3 4 4 3 2 2 2 3 3 2 3 3 4 4 5 5 5 6
6 4 4 4 6 1 2 3 2 2 2 2 2 2 2 2 2 5 3 3 5 6 6 6 4 3 0 3 6 7 8 7 6 4 4 4 4 4 5 3 2 4 5 5 3 3 4 5 6 7 7 8 9 9
2 6 4 4 5 3 4 4 4 3 1 0 3 0 1 2 2 2 2 2 5 4 4 4 3 4 5 5 6 7 8 8 7 6 7 6 4 3 3 4 5 5 4 1 2 4 6 8 9 9 9 10 10 11
4 6 4 2 3 3 1 2 0 2 2 2 1 1 2 2 3 3 2 5 5 3 1 1 2 4 4 5 5 5 6 6 5 4 4 6 6 5 4 3 3 4 6 5 6 7 8 9 11 12 13 13 13 12
3 3 3 3 1 1 3 2 2 2 2 3 2 1 2 2 3 2 6 5 5 3 2 1 1 2 2 3 4 5 6 6 3 1 2 4 5 5 5 5 6 6 7 7 8 8 8 8 8 9 9 8 9 6
3 4 2 4 2 2 3 1 1 2 1 1 4 2 4 4 2 5 6 6 5 4 2 2 2 1 1 2 4 5 6 3 2 4 2 1 2 5 6 7 7 8 9 10 10 10 9 9 9 9 9 8 7 3
2 3 4 3 2 1 1 3 2 2 2 2 3 2 3 3 6 6 6 6 6 5 4 3 4 3 3 4 4 4 3 2 5 6 7 7 6 7 8 8 9 10 11 10 11 11 11 10 10 10 9 9 7 6
2 4 2 1 1 3 1 3 3 3 1 2 5 7 6 6 7 6 5 5 4 4 3 2 1 2 3 3 3 3 2 2 3 4 4 5 6 7 8 9 10 11 12 12 12 10 9 9 9 9 8 6 4 1
5 3 3 4 4 4 5 5 6 6 4 4 4 5 7 7 8 6 5 4 4 4 4 4 5 4 3 2 2 2 3 4 3 3 3 4 5 7 8 10 11 12 12 11 11 9 7 5 4 5 5 4 4 5
4 3 3 2 2 4 9 8 7 4 4 4 3 4 6 5 4 5 2 2 2 3 3 4 4 3 2 1 0 2 3 5 5 4 4 5 6 7 9 10 10 10 10 9 8 7 5 3 2 4 6 8 10 10
6 6 4 4 2 2 4 6 4 4 3 3 3 4 3 3 3 4 3 1 1 1 1 2 2 3 2 1 0 2 4 5 5 5 6 6 8 8 8 8 7 7 7 7 7 8 9 9 9 10 10 9 8 7
Wind_Direction
218 213 186 182 181 177 174 175 180 185 188 190 193 198 199 200 202 212 220 229 224 236 255 252 244 246 256 222 206 264 132 165 163 197 214 189 191 200 184 193 175 190 190 202 165 143 262 153 138 201 171 94 161 160
198 190 182 182 169 167 173 176 182 186 188 189 193 198 199 202 204 213 224 228 233 231 246 241 249 249 251 247 252 221 265 181 175 181 206 170 193 177 186 214 160 194 194 189 196 207 48 174 252 198 187 159 165 159
188 190 179 164 163 167 172 178 183 185 185 189 193 196 198 197 201 213 220 215 199 234 261 256 250 233 254 256 240 222 222 219 197 208 156 130 227 164 181 228 187 224 188 222 168 184 200 206 220 183 185 175 172 171
168 164 163 165 168 171 173 175 175 179 184 187 192 196 197 200 207 212 214 220 213 250 244 260 261 243 240 238 231 230 230 213 204 182 133 175 226 197 203 268 217 181 162 174 248 263 246 226 206 182 165 163 161 162
156 160 162 164 167 172 174 175 176 179 181 183 187 195 198 199 208 213 224 224 235 223 298 279 273 228 225 233 234 226 207 184 169 156 185 194 242 176 196 177 229 191 175 187 221 209 200 216 191 182 170 166 167 163
149 152 155 157 162 166 167 169 174 174 176 181 183 187 193 196 198 208 238 236 236 233 253 256 242 237 205 208 177 183 189 192 205 168 183 233 270 226 196 222 245 214 203 202 207 208 200 185 175 173 169 167 169 171
146 153 156 158 162 163 167 173 178 176 174 177 183 185 199 199 211 208 209 212 217 207 212 248 241 183 164 172 160 188 209 194 188 210 190 182 195 190 237 234 236 206 206 207 194 156 125 163 172 171 171 165 166 163
143 148 151 155 156 165 173 180 167 160 162 175 185 200 200 217 229 246 232 242 185 171 190 240 200 133 152 129 124 175 175 196 201 212 145 184 159 173 250 232 213 192 185 173 169 181 224 177 166 167 171 165 165 167
144 147 150 160 161 165 152 149 150 154 164 177 187 200 198 211 211 226 200 177 162 173 181 212 174 140 143 134 144 141 172 152 171 216 202 184 158 220 238 234 201 191 177 180 169 163 162 172 167 168 173 173 173 173
143 147 153 154 145 142 142 143 155 166 170 182 194 178 205 189 168 153 134 170 193 192 209 167 162 149 156 180 89 136 49 97 164 106 166 214 251 264 295 277 247 198 194 179 155 149 166 171 174 176 181 182 184 182
134 147 148 150 145 144 149 157 162 170 183 185 177 204 142 123 114 122 156 196 165 162 172 150 169 130 136 131 127 58 144 66 170 114 273 293 276 334 336 288 214 194 193 189 199 210 196 192 181 181 182 185 187 190
125 123 130 137 142 146 152 161 161 151 152 175 139 113 87 115 149 138 165 145 152 158 148 137 123 128 131 123 102 57 109 93 177 355 126 258 313 336 334 237 174 183 187 188 188 188 183 186 189 187 186 187 191 191
128 130 132 135 138 137 130 115 106 123 104 128 70 74 54 360 49 121 158 135 152 158 157 151 126 129 118 93 76 95 95 166 124 48 244 270 327 345 333 175 165 163 173 184 188 179 182 183 187 191 191 193 193 195
125 130 136 138 139 131 112 114 106 111 32 205 145 66 51 14 63 73 28 98 98 196 148 127 92 90 87 64 114 92 77 107 80 356 317 329 337 338 307 179 174 165 169 178 179 176 173 177 178 180 189 195 197 201
131 132 138 143 149 146 132 149 124 10 88 79 38 62 66 3 292 288 277 99 97 133 138 113 85 93 51 98 27 130 111 49 331 351 317 336 345 352 167 182 182 175 168 160 162 164 164 170 178 182 186 192 199 203
129 129 119 122 121 105 111 104 47 68 64 63 50 61 12 53 32 31 55 75 90 123 102 77 97 69 59 111 85 61 114 74 327 333 336 350 8 28 114 182 178 168 158 146 138 154 167 174 180 187 191 195 198 205
143 114 126 131 125 143 162 140 64 55 56 50 47 37 47 39 16 19 50 61 56 74 69 64 62 69 101 72 75 50 62 53 2 351 1 7 24 45 107 155 170 172 170 170 161 164 165 167 176 186 195 199 205 212
100 113 131 133 125 108 80 61 78 70 65 54 74 57 72 48 40 45 62 94 80 50 60 81 100 61 48 74 68 37 77 69 26 10 0 16 43 74 97 127 156 173 189 202 203 207 211 216 221 218 216 219 227 232
97 107 109 104 120 73 60 49 50 92 84 83 70 74 72 64 58 74 68 83 90 87 98 62 63 53 61 42 22 34 43 63 56 42 33 16 33 70 109 160 195 199 198 202 206 209 214 227 230 227 229 232 237 242
91 99 84 51 31 69 72 51 59 80 83 85 78 62 63 71 67 61 72 67 75 57 49 46 51 45 68 53 64 48 42 53 94 73 40 35 39 52 65 134 213 222 224 225 227 229 233 237 239 241 245 249 253 256
56 82 105 140 63 66 82 76 70 86 117 90 88 74 72 65 57 46 44 46 55 40 70 80 97 101 90 85 82 78 64 57 59 58 52 49 38 41 52 58 55 39 289 250 246 245 246 250 255 261 265 264 262 261
30 50 75 71 78 73 69 48 86 100 92 110 96 83 84 76 66 41 57 57 62 41 76 105 106 120 103 73 57 46 41 36 36 44 34 10 10 12 21 34 41 36 34 42 55 61 340 291 286 283 278 272 273 272
13 21 49 44 89 66 78 43 82 54 79 46 61 54 33 61 69 68 81 77 104 84 100 115 117 104 81 64 38 20 12 9 11 17 15 4 354 343 327 328 332 341 8 12 9 350 335 327 317 313 314 313 314 303
13 40 32 43 42 78 60 56 75 84 94 61 73 76 5 37 51 62 83 90 115 108 104 104 142 185 290 359 9 9 9 9 5 354 354 4 6 4 2 357 321 292 279 274 306 319 324 323 325 318 309 300 291 283
27 15 21 5 33 50 36 13 353 53 99 182 93 323 217 141 80 66 119 135 132 107 82 63 43 40 37 29 23 19 13 15 23 33 30 30 28 13 23 35 36 33 29 293 266 292 293 301 308 311 309 309 306 294
71 19 57 23 351 74 195 62 345 185 117 58 105 124 139 94 88 160 145 154 161 154 110 24 19 13 360 3 7 7 9 5 7 15 18 24 25 24 23 6 349 325 344 337 321 310 303 300 302 302 302 300 295 288
55 334 38 39 6 83 54 86 115 112 132 169 194 73 72 111 195 153 144 151 176 194 216 281 339 348 359 10 2 350 343 339 320 308 62 18 16 23 18 11 7 0 357 351 348 343 339 338 333 329 330 327 328 295
52 19 108 337 13 16 142 65 123 200 227 147 144 121 163 184 162 159 171 175 176 180 203 254 283 313 7 7 8 2 348 354 142 155 177 328 20 6 355 344 336 332 329 325 322 319 318 319 322 325 330 330 314 289
45 10 342 346 318 282 235 166 177 167 175 189 126 137 125 112 143 156 167 184 197 218 240 255 264 270 287 307 324 345 7 186 194 229 257 276 292 297 312 316 317 317 318 319 317 312 308 297 291 302 315 321 317 290
356 331 314 245 185 243 163 181 188 187 247 163 136 128 127 134 147 160 172 188 202 214 215 223 260 300 299 299 312 318 322 307 292 275 284 295 310 315 323 327 329 329 328 325 323 318 306 292 281 282 291 302 321 322
281 246 233 225 235 211 191 227 192 172 158 131 131 139 139 145 160 173 192 206 217 231 248 263 273 283 301 320 357 26 21 12 2 354 345 335 332 331 331 333 335 337 338 338 338 336 327 307 276 257 237 211 165 146
290 272 319 285 276 215 179 183 179 166 146 146 119 133 138 145 150 181 195 216 250 269 263 263 252 249 254 253 19 15 359 353 352 346 344 341 336 333 333 337 342 346 351 358 4 12 23 38 105 124 127 126 124 122
288 306 296 291 306 203 205 189 153 107 101 101 110 138 138 135 138 160 139 72 4 313 275 255 207 181 169 163 297 321 327 334 340 336 335 336 336 337 340 347 357 10 22 29 44 58 70 80 94 102 106 109 110 108